Regional Weather Roundup
Issued by NWS

Home | Current Version | Previous Version | Graphics & Text | Print | Product List | Glossary Off
Versions: 1 2 3 4 5 6 7 8 9 10 11 12 13 14 15 16 17 18 19 20 21 22 23 24 25 26 27 28 29 30 31 32 33 34 35 36 37 38 39 40 41 42 43 44 45 46 47 48 49 50

000
ASUS43 KTOP 210359
RWRKS

WEATHER ROUNDUP FOR KANSAS
NATIONAL WEATHER SERVICE GOODLAND KS
1000 PM CST MON FEB 20 2017

NOTE:  "FAIR" INDICATES FEW OR NO CLOUDS BELOW 12,000 FEET WITH NO
SIGNIFICANT WEATHER AND/OR OBSTRUCTIONS TO VISIBILITY.

KSZ001>006-013>018-027>032-041>047-210500-
NORTHWEST KANSAS

CITY           SKY/WX    TMP DP  RH WIND       PRES   REMARKS
GOODLAND       CLOUDY    39  12  33 S8        30.03S
HAYS           CLEAR     40  31  70 NW8       30.00S
HILL CITY      CLEAR     35  27  72 SW5       30.01R
RUSSELL        CLEAR     48  35  60 N3        29.97F
$$

KSZ061>065-074>080-084>089-210500-
SOUTHWEST KANSAS

CITY           SKY/WX    TMP DP  RH WIND       PRES   REMARKS
DODGE CITY     CLEAR     41  25  53 NW6       30.02S
ELKHART          N/A     50  12  21 N3          N/A
GARDEN CITY    CLEAR     37  18  46 N8        30.04R
GREAT BEND     CLEAR     38  30  73 CALM      29.99S
LIBERAL        CLEAR     39  12  33 NW3       30.05S
$$

KSZ066>073-081>083-090>101-210500-
SOUTHEAST KANSAS

CITY           SKY/WX    TMP DP  RH WIND       PRES   REMARKS
CHANUTE        CLOUDY    55  51  86 SW6       29.92F
COFFEYVILLE    CLOUDY    57  53  86 CALM      29.92F
HUTCHINSON     CLEAR     55  39  54 N13       29.96R
MEDICINE LODGE   N/A     52  37  56 N9        29.96R
NEWTON         CLEAR     52  44  74 N15       29.95S
PARSONS        CLOUDY    53  50  89 CALM      29.93S
WICHITA INTL   PTCLDY    55  44  66 N10       29.94R
WICHITA JABRA  CLEAR     53  47  79 N10       29.94S
WINFIELD       CLEAR     45  44  97 NW6       29.93F FOG
$$

KSZ007>012-019>026-033>040-048>060-102>105-210500-
NORTHEAST KANSAS

CITY           SKY/WX    TMP DP  RH WIND       PRES   REMARKS
CONCORDIA      CLEAR     49  39  68 N7        29.97S
EMPORIA        MOCLDY    50  49  96 W5        29.93R
LAWRENCE       PTCLDY    56  52  86 CALM      29.93R
MANHATTAN      CLEAR     53  46  77 N3        29.95R
OLATHE IND     CLOUDY    58  52  80 SW8       29.92S
OLATHE EXE     MOCLDY    58  53  84 W5        29.91S
SALINA         CLEAR     53  40  61 N10       29.97R
TOPEKA BILLARD PTCLDY    55  50  83 CALM      29.93R
TOPEKA FORBES  CLOUDY    51  49  92 W3        29.93R
$$



USA.gov is the U.S. government's official web portal to all federal, state and local government web resources and services.